This is the latest recevied weather packets stored in our database for station/object OK2ZAW-23. If no packets are shown the sender has not sent any weather packets the latest 10 day(s).
| Time | Temp. | Humidity | Pressure | Rain* | Wind** | Luminosity | Snow |
|---|---|---|---|---|---|---|---|
| 1777011800 | 6.67° C | 90% | 1015.2 hPa | - | - | 335 W/m² | - |
| 1777010862 | 6.11° C | 92% | 1015.3 hPa | - | - | 335 W/m² | - |
| 1777010549 | 6.11° C | 93% | 1015.4 hPa | - | - | 335 W/m² | - |
| 1777010236 | 5.56° C | 94% | 1015.4 hPa | - | - | 335 W/m² | - |
| 1777009923 | 5.56° C | 94% | 1015.4 hPa | - | - | 335 W/m² | - |
| 1777008985 | 5° C | 96% | 1015.4 hPa | - | - | 335 W/m² | - |
| 1777008359 | 4.44° C | 98% | 1015.6 hPa | - | - | 335 W/m² | - |
| 1777007420 | 3.89° C | 99% | 1015.6 hPa | - | - | 335 W/m² | - |
| 1777007107 | 3.89° C | 99% | 1015.6 hPa | - | - | 335 W/m² | - |
| 1777006794 | 3.89° C | 10% | - | - | - | - | - |
| 1777006482 | 3.89° C | 10% | - | - | - | - | - |
| 1777006170 | 3.89° C | 10% | - | - | - | - | - |
| 1777005544 | 3.33° C | 97% | 1015.4 hPa | - | - | 335 W/m² | - |
| 1777004918 | 3.33° C | 99% | 1015.4 hPa | - | - | 335 W/m² | - |
| 1777004606 | 3.33° C | 98% | 1015.4 hPa | - | - | 335 W/m² | - |
| 1777003980 | 3.33° C | 97% | 1015.4 hPa | - | - | 335 W/m² | - |
| 1777003668 | 3.33° C | 97% | 1015.4 hPa | - | - | 335 W/m² | - |
| 1777003354 | 3.33° C | 99% | 1015.2 hPa | - | - | 335 W/m² | - |
| 1777003041 | 3.33° C | 98% | 1015.2 hPa | - | - | 335 W/m² | - |
| 1777002729 | 2.78° C | 93% | 1015.2 hPa | - | - | 335 W/m² | - |
| 1777000852 | 3.33° C | 91% | 1015.2 hPa | - | - | 335 W/m² | - |
| 1777000539 | 3.33° C | 91% | 1015.2 hPa | - | - | 335 W/m² | - |
| 1776999601 | 3.89° C | 94% | 1015.2 hPa | - | - | 335 W/m² | - |
| 1776999288 | 3.89° C | 93% | 1015.2 hPa | - | - | 335 W/m² | - |
| 1776998350 | 4.44° C | 92% | 1015.2 hPa | - | - | 335 W/m² | - |
* Rain since midnight (hover to see other rain measurements)
** Current wind speed in m/s (hover to see current wind gust speed)